Wind_Speed
3 3 3 3 2 1 1 1 1 1 1 1 1 1 1 1 1 0 1 1 1 1 2 2 3 3 3 3 3 3 4 3 4 4 4 4 4 5 5 5 5 6 6 7 6 6 6 6 6
3 3 3 3 3 3 2 2 2 2 1 1 1 2 2 1 1 1 2 1 2 2 3 2 3 3 4 3 3 3 4 4 4 4 5 5 5 5 5 6 6 6 7 7 7 7 7 7 7
3 3 4 3 3 3 3 4 4 3 3 3 3 3 3 3 2 2 2 2 2 3 3 3 3 4 4 4 4 4 4 4 4 5 6 6 6 6 6 7 7 8 8 8 8 7 8 8 7
4 4 4 4 4 4 4 4 4 4 5 5 4 4 4 4 3 3 3 3 4 4 4 4 4 5 5 5 5 5 5 5 5 6 6 6 6 6 7 7 8 9 9 9 8 8 9 9 9
4 5 5 5 5 5 5 5 5 5 5 5 5 5 5 4 4 4 4 5 5 5 5 5 5 5 6 6 6 6 6 6 6 6 6 6 6 7 7 7 8 9 9 9 9 9 9 9 10
5 5 6 5 5 6 5 5 6 5 5 5 6 7 6 6 5 5 6 6 6 6 6 6 6 6 6 7 6 6 6 6 6 7 6 6 6 7 7 7 8 8 9 9 10 9 9 10 10
6 6 6 6 5 5 6 6 5 5 5 6 6 7 7 7 7 6 7 7 8 7 7 7 7 7 7 7 7 7 6 7 7 7 7 7 7 7 7 7 8 8 8 8 9 9 9 9 9
7 7 6 6 7 6 6 6 6 7 7 7 7 7 7 7 7 8 7 8 8 8 8 8 8 8 8 8 8 7 7 7 7 7 7 7 8 7 7 8 8 8 8 8 9 9 10 10 10
8 8 7 7 7 7 7 7 7 8 8 8 8 8 8 8 8 8 8 8 8 8 9 9 9 9 9 9 9 9 8 8 8 7 7 8 8 8 8 7 8 8 8 8 9 9 9 10 10
9 9 8 8 8 8 8 8 9 9 8 8 8 8 8 8 8 8 8 8 8 9 9 9 9 9 9 9 9 9 9 9 8 8 8 8 8 8 8 8 9 9 8 9 9 9 9 9 9
9 9 8 9 9 8 9 9 9 9 9 8 8 8 8 8 9 9 9 9 8 9 9 9 10 10 10 10 10 10 10 10 10 9 9 9 9 9 8 8 9 9 9 9 9 9 9 9 10
9 9 9 9 9 8 8 9 8 8 8 7 7 8 8 9 9 9 9 9 9 9 9 10 10 10 10 10 10 10 11 11 11 10 10 9 9 9 9 9 10 10 10 10 10 10 9 10 10
9 9 9 9 9 8 8 7 8 8 8 7 8 8 9 9 9 9 9 10 10 10 10 10 10 10 10 10 11 11 11 11 11 11 10 10 10 10 11 11 11 11 11 10 10 10 10 10 10
9 8 8 8 8 8 7 7 7 7 7 7 7 8 8 8 9 9 9 10 11 11 11 11 11 11 11 11 11 11 11 12 12 11 11 11 11 11 11 11 11 11 11 11 11 11 11 11 11
7 8 8 7 7 7 7 7 7 7 7 7 7 8 9 9 9 10 10 10 11 11 11 11 12 12 13 13 12 12 12 12 12 12 12 11 11 11 11 11 11 11 11 11 11 12 12 12 12
7 8 8 7 7 7 7 7 7 8 8 8 8 9 9 9 9 10 10 11 11 11 12 12 12 13 13 13 13 13 13 13 13 13 12 12 11 11 11 11 11 11 11 11 12 12 12 12 12
8 8 8 8 8 8 8 8 9 9 9 9 9 10 10 10 10 11 11 12 12 12 12 12 13 13 13 13 13 14 14 14 14 13 13 12 12 12 12 12 12 12 11 12 12 13 13 13 12
9 9 9 9 9 8 9 9 8 9 9 9 10 10 10 11 11 12 12 13 13 13 13 13 13 13 14 14 14 14 14 14 13 13 14 14 13 13 13 13 12 13 13 13 13 13 13 13 13
10 9 9 9 9 9 10 9 9 9 10 10 10 10 10 11 11 12 12 13 13 13 13 13 13 13 14 14 14 14 14 14 14 14 14 13 14 13 14 14 13 13 14 13 13 13 13 13 13
11 10 9 9 9 9 10 10 10 9 10 11 11 11 10 11 12 12 12 13 13 14 13 13 14 14 14 14 14 14 14 13 14 13 13 13 14 14 13 14 14 14 14 14 13 13 13 13 13
10 10 9 9 9 9 10 10 10 10 11 11 12 11 11 11 11 12 12 13 13 14 14 14 14 15 14 14 14 14 14 14 15 14 13 13 13 14 14 13 14 14 14 14 14 13 13 14 13
10 10 10 10 10 10 10 10 10 11 11 12 12 11 11 11 11 11 12 12 13 14 14 14 14 14 14 14 14 14 15 14 14 14 14 14 13 14 14 14 14 14 14 14 14 14 14 14 13
11 11 11 10 11 10 10 10 9 11 12 11 11 11 11 11 11 12 12 12 13 13 13 13 14 14 14 14 14 15 15 15 15 15 15 15 14 14 14 14 14 14 14 14 14 14 14 15 14
11 11 11 11 11 11 10 11 10 10 10 11 11 11 12 12 12 12 13 13 13 13 13 14 14 14 14 14 15 15 15 15 15 15 15 15 15 15 15 15 15 15 15 14 15 15 15 15 15
12 12 12 12 12 11 11 11 10 11 11 12 13 12 13 13 13 13 14 14 14 14 14 15 14 14 14 14 15 15 15 15 15 15 15 15 16 16 15 15 16 15 15 16 16 15 16 15 15
12 12 13 13 12 11 11 11 11 11 12 13 14 14 14 14 15 15 16 16 16 16 16 16 16 16 15 16 16 16 16 16 16 16 16 16 17 17 17 17 16 16 16 16 16 16 16 15 14
13 13 13 14 14 13 12 11 11 12 13 14 14 15 15 16 16 16 17 17 17 17 17 17 17 17 17 17 17 17 17 18 18 18 17 17 18 18 17 17 16 17 17 16 16 15 16 15 15
14 14 14 15 15 14 13 12 12 13 13 15 15 16 17 17 17 17 17 17 17 18 18 18 18 18 19 19 19 19 19 19 19 18 18 17 18 18 18 18 17 17 16 17 17 17 16 16 17
14 15 15 16 16 16 15 13 14 15 15 16 17 17 18 19 19 18 18 18 18 19 19 19 19 19 19 20 20 20 20 20 20 20 19 19 19 19 18 18 18 18 18 18 18 18 17 18 19
17 17 18 18 18 18 17 15 16 16 17 17 17 18 19 19 18 18 19 19 19 19 19 20 20 20 20 20 20 20 20 20 20 20 20 20 20 19 18 19 19 19 19 19 19 19 19 19 19
Wind_Direction
271 269 264 258 268 278 313 304 279 312 34 358 323 9 29 19 24 319 353 17 3 349 331 332 337 341 340 333 335 334 333 330 326 324 316 311 315 317 319 323 325 323 321 318 313 312 313 312 309
270 270 262 259 261 267 276 285 280 282 291 288 298 310 328 331 296 288 306 323 327 325 326 324 326 325 325 328 331 330 324 320 318 320 315 308 308 311 310 310 316 320 319 317 313 312 312 310 305
272 271 266 266 275 277 267 267 262 268 269 274 282 286 294 303 297 281 284 289 300 304 311 316 313 309 311 315 315 314 313 312 310 309 312 307 303 304 303 304 306 309 311 311 312 308 307 307 305
278 282 275 270 273 267 265 267 266 270 272 274 281 281 292 297 294 288 283 282 285 294 295 298 303 303 303 308 310 305 300 305 307 305 304 303 304 304 302 300 300 302 305 305 306 304 302 301 300
278 280 279 278 275 269 265 264 268 275 277 274 276 281 283 283 283 279 277 280 284 287 290 288 294 304 303 302 300 301 297 300 300 301 297 298 299 299 300 302 301 299 299 301 300 297 297 300 301
278 278 278 284 280 273 268 272 273 271 273 277 280 280 280 276 277 276 275 277 277 277 280 281 289 297 302 304 299 300 296 298 299 299 296 294 297 295 297 300 305 301 300 297 295 294 292 299 301
284 282 279 283 283 280 274 277 276 273 276 280 284 283 281 275 276 277 277 277 277 277 275 275 280 288 296 298 295 298 296 298 297 297 297 291 294 292 290 293 297 300 301 301 295 295 295 298 299
286 283 279 277 278 277 275 275 271 277 283 281 280 280 277 275 277 277 276 276 273 272 272 273 274 279 286 290 294 297 296 294 291 292 296 294 295 294 292 290 291 294 296 296 296 297 296 295 294
280 279 279 274 274 276 276 278 276 280 284 280 279 279 275 274 278 279 277 275 270 269 271 273 275 279 282 285 287 290 287 284 284 284 288 291 293 293 293 291 290 292 292 294 296 296 294 292 294
278 276 277 276 275 276 278 279 278 281 282 281 277 274 272 274 275 277 278 278 274 272 273 275 276 281 283 282 281 284 283 282 279 278 282 288 288 288 288 290 291 292 290 294 295 294 293 293 294
279 277 277 276 277 279 280 279 278 277 280 275 275 273 273 276 276 278 280 282 280 276 276 276 277 280 282 281 280 282 283 279 275 276 278 282 284 285 291 290 291 292 291 292 294 293 292 291 291
279 278 276 275 278 282 283 278 277 282 282 277 276 274 275 275 275 273 275 279 280 279 277 276 276 276 275 276 278 280 281 276 276 276 277 279 281 284 288 291 293 291 289 291 292 292 292 291 290
277 276 276 278 278 281 284 283 283 283 283 283 281 279 280 275 273 272 272 273 276 277 279 278 278 275 275 277 277 278 280 277 276 278 278 277 279 282 283 285 289 290 289 291 291 290 291 291 290
276 275 276 279 279 281 282 279 280 284 286 285 284 280 278 276 278 277 276 272 273 277 279 278 278 276 273 275 278 279 280 280 278 278 277 278 278 279 279 281 284 287 288 288 288 287 289 292 292
272 274 276 279 279 282 282 280 283 286 286 287 287 282 278 278 280 281 282 279 278 280 279 278 278 276 273 273 273 276 278 278 280 280 277 275 277 277 276 279 283 286 287 287 287 289 291 293 292
268 271 272 274 280 286 282 282 287 288 288 289 288 285 283 282 282 284 284 282 282 281 281 278 277 275 274 273 271 272 273 274 275 278 278 274 274 275 273 278 282 285 286 286 286 286 289 290 291
268 270 271 272 277 284 283 281 281 285 286 289 287 285 285 283 283 285 285 286 287 286 284 280 278 277 275 274 274 273 272 271 272 272 273 274 271 270 271 273 279 283 284 285 284 284 287 286 286
269 271 273 275 277 278 280 280 282 286 286 290 294 290 284 284 284 286 286 285 287 287 284 280 278 276 276 276 275 274 274 273 273 274 270 269 270 271 273 276 279 281 282 283 284 285 284 283 284
267 268 271 274 273 273 276 277 277 280 284 288 293 293 290 290 289 290 288 288 289 288 286 282 278 276 276 276 275 273 271 272 273 274 269 267 268 269 270 274 279 278 279 283 284 284 284 282 283
266 267 270 270 271 274 276 277 276 279 286 291 292 290 293 291 290 291 290 290 291 290 287 284 280 279 278 276 274 274 272 272 273 272 268 265 266 267 267 270 274 276 277 279 280 280 283 285 284
263 265 270 274 276 278 279 278 280 282 287 291 294 294 294 292 290 290 290 291 292 291 288 285 283 280 277 275 274 274 273 270 270 270 270 268 267 268 269 271 273 275 277 278 279 279 280 282 283
266 269 272 276 278 279 281 281 282 285 289 292 295 296 296 296 296 294 293 293 293 292 290 288 285 280 276 274 273 272 271 270 268 269 271 270 270 268 269 272 274 274 275 277 277 278 279 279 280
268 270 272 274 277 280 283 287 289 289 293 295 297 299 297 298 300 299 296 296 296 294 291 290 287 284 279 275 272 273 273 273 269 269 273 273 272 272 270 272 274 273 274 274 274 274 277 276 276
267 267 269 271 275 279 285 289 292 295 298 296 297 298 299 300 301 302 300 298 299 298 294 291 287 284 280 276 274 274 276 276 271 270 270 272 272 272 271 272 273 271 272 273 273 272 276 274 274
266 266 268 272 276 282 286 288 293 296 297 299 297 296 299 299 299 300 299 298 297 296 294 291 287 282 278 276 275 276 277 278 275 271 270 270 271 271 273 273 273 271 272 271 272 272 275 275 274
264 265 270 276 282 286 289 291 293 295 296 297 297 296 297 297 297 297 296 294 292 290 291 292 287 283 279 278 277 275 275 276 275 273 272 271 272 271 271 270 272 271 269 269 270 270 272 272 273
265 266 270 274 279 284 289 293 292 295 294 296 297 297 298 299 299 299 297 295 293 290 289 291 288 283 280 278 277 274 274 274 274 272 271 271 271 271 271 270 270 269 269 270 271 272 272 270 272
268 269 270 273 281 285 289 291 293 295 295 296 298 299 299 299 299 298 298 296 294 292 290 290 286 282 279 277 278 275 274 273 273 273 271 270 270 271 271 269 269 270 269 270 270 270 270 270 273
267 269 272 275 280 286 289 292 294 296 297 298 301 302 300 299 298 297 298 297 296 294 291 290 288 284 281 279 278 276 276 275 275 272 271 271 270 270 270 267 267 268 269 268 268 267 268 271 272
268 272 273 276 279 283 287 292 292 295 295 297 300 302 302 301 299 298 298 297 296 295 292 290 288 285 282 279 278 276 276 276 274 272 270 270 270 270 270 269 268 267 267 268 268 267 270 271 273
Height
5882 5882 5883 5884 5885 5885 5884 5884 5884 5884 5884 5884 5884 5884 5884 5884 5885 5887 5885 5884 5884 5884 5884 5883 5883 5882 5882 5882 5882 5881 5881 5881 5881 5881 5881 5881 5880 5880 5880 5880 5880 5880 5880 5880 5879 5879 5879 5878 5878
5882 5882 5884 5884 5884 5884 5885 5884 5884 5884 5885 5884 5884 5884 5884 5883 5884 5884 5884 5884 5884 5884 5883 5883 5883 5882 5882 5881 5881 5881 5881 5880 5880 5880 5880 5880 5880 5880 5880 5880 5879 5879 5879 5879 5878 5878 5878 5877 5877
5882 5883 5884 5884 5884 5884 5884 5884 5884 5884 5884 5884 5884 5884 5883 5883 5883 5883 5883 5884 5883 5883 5883 5882 5882 5882 5881 5881 5880 5880 5880 5880 5880 5879 5879 5879 5879 5879 5879 5879 5879 5878 5878 5877 5877 5877 5877 5876 5876
5882 5883 5884 5884 5883 5884 5884 5884 5884 5884 5884 5884 5884 5883 5883 5883 5883 5883 5883 5883 5883 5883 5882 5882 5882 5881 5881 5880 5879 5879 5879 5879 5879 5879 5878 5878 5878 5878 5878 5878 5877 5877 5877 5876 5876 5876 5875 5875 5875
5882 5883 5883 5883 5883 5883 5883 5883 5883 5883 5883 5883 5883 5883 5882 5882 5882 5882 5882 5882 5882 5882 5882 5881 5881 5880 5880 5879 5879 5878 5878 5878 5877 5877 5877 5877 5877 5877 5877 5876 5876 5876 5875 5875 5875 5874 5874 5873 5873
5882 5882 5883 5882 5882 5882 5882 5882 5882 5882 5882 5882 5882 5882 5881 5881 5881 5881 5881 5881 5881 5881 5881 5880 5880 5879 5878 5878 5877 5877 5877 5877 5876 5876 5876 5876 5875 5875 5875 5875 5875 5874 5874 5873 5873 5873 5872 5872 5871
5882 5881 5881 5881 5881 5881 5881 5881 5881 5881 5881 5881 5881 5881 5880 5880 5880 5880 5880 5880 5880 5879 5879 5879 5878 5877 5877 5877 5876 5876 5876 5875 5875 5875 5874 5874 5874 5874 5874 5873 5873 5873 5872 5872 5871 5871 5870 5870 5869
5880 5881 5880 5880 5880 5880 5880 5880 5880 5880 5880 5880 5880 5880 5879 5879 5879 5879 5879 5878 5878 5878 5877 5877 5877 5876 5876 5875 5875 5875 5874 5874 5874 5873 5873 5873 5873 5872 5872 5872 5872 5871 5871 5871 5870 5869 5869 5868 5868
5879 5880 5879 5879 5879 5879 5879 5879 5879 5879 5878 5878 5878 5878 5878 5878 5877 5877 5877 5876 5876 5876 5876 5875 5875 5875 5874 5873 5873 5873 5873 5873 5872 5872 5872 5872 5871 5871 5871 5870 5870 5870 5869 5869 5868 5867 5867 5866 5866
5877 5877 5877 5877 5877 5877 5877 5877 5877 5877 5877 5877 5876 5877 5876 5876 5875 5875 5875 5874 5874 5874 5874 5873 5873 5873 5872 5872 5872 5871 5871 5871 5871 5870 5870 5870 5870 5869 5869 5869 5868 5868 5867 5867 5866 5866 5865 5865 5864
5875 5875 5875 5875 5875 5875 5875 5875 5875 5875 5875 5875 5875 5875 5874 5874 5873 5873 5873 5872 5872 5872 5872 5872 5871 5871 5870 5870 5870 5870 5869 5869 5869 5869 5868 5868 5868 5867 5867 5867 5866 5866 5865 5865 5864 5864 5863 5863 5862
5873 5873 5873 5874 5874 5874 5874 5874 5873 5873 5874 5873 5873 5873 5872 5872 5871 5871 5871 5870 5870 5870 5869 5869 5869 5868 5868 5868 5868 5867 5867 5867 5867 5866 5866 5866 5866 5865 5865 5865 5864 5864 5863 5863 5862 5861 5861 5860 5860
5872 5872 5872 5872 5872 5872 5872 5872 5872 5871 5871 5871 5871 5870 5870 5869 5869 5868 5868 5868 5868 5868 5867 5867 5866 5866 5866 5865 5865 5865 5865 5864 5864 5864 5864 5864 5863 5863 5863 5863 5862 5862 5861 5861 5860 5859 5859 5858 5858
5870 5870 5870 5870 5871 5871 5871 5871 5870 5870 5869 5869 5869 5868 5868 5867 5867 5866 5866 5866 5866 5865 5865 5864 5864 5864 5863 5863 5863 5862 5862 5862 5861 5861 5861 5861 5861 5861 5861 5860 5860 5859 5859 5858 5858 5857 5857 5856 5855
5868 5869 5869 5869 5869 5869 5870 5869 5869 5868 5868 5868 5867 5867 5866 5866 5865 5864 5864 5864 5863 5863 5862 5862 5861 5861 5861 5861 5860 5860 5859 5859 5859 5859 5858 5858 5858 5858 5858 5858 5857 5857 5856 5856 5855 5855 5854 5853 5853
5867 5868 5868 5868 5868 5867 5869 5868 5867 5867 5866 5866 5865 5865 5864 5864 5863 5862 5862 5861 5861 5860 5860 5859 5859 5858 5858 5858 5858 5857 5857 5856 5856 5856 5855 5855 5855 5855 5856 5855 5855 5854 5854 5853 5853 5852 5851 5851 5850
5866 5866 5867 5867 5866 5866 5866 5866 5866 5865 5864 5864 5863 5863 5862 5862 5861 5860 5859 5859 5858 5857 5856 5856 5855 5855 5855 5854 5854 5854 5853 5853 5853 5852 5852 5852 5852 5852 5852 5852 5852 5852 5851 5850 5850 5849 5848 5848 5847
5865 5865 5865 5865 5865 5864 5864 5864 5864 5863 5863 5862 5861 5860 5859 5859 5858 5857 5856 5856 5855 5854 5853 5853 5852 5852 5851 5851 5850 5850 5850 5849 5849 5849 5849 5849 5849 5849 5849 5849 5849 5848 5848 5847 5846 5846 5845 5844 5844
5863 5863 5863 5863 5863 5863 5862 5862 5862 5861 5860 5860 5859 5858 5857 5857 5856 5854 5853 5852 5852 5851 5850 5849 5849 5848 5848 5847 5847 5847 5846 5846 5846 5846 5846 5845 5845 5846 5846 5846 5845 5845 5844 5844 5843 5842 5842 5841 5841
5860 5861 5861 5861 5861 5861 5860 5860 5859 5859 5858 5858 5857 5856 5855 5854 5853 5852 5851 5850 5849 5847 5846 5845 5844 5844 5843 5843 5843 5843 5843 5842 5842 5842 5842 5842 5842 5842 5842 5842 5842 5841 5841 5840 5840 5839 5838 5838 5837
5858 5859 5859 5859 5859 5858 5858 5858 5858 5857 5856 5855 5854 5853 5852 5851 5850 5849 5848 5847 5845 5844 5843 5842 5841 5840 5840 5839 5839 5839 5839 5839 5838 5838 5838 5838 5838 5838 5838 5838 5838 5838 5837 5837 5836 5835 5835 5834 5834
5856 5857 5857 5857 5857 5856 5857 5856 5856 5855 5854 5853 5852 5851 5849 5848 5847 5846 5845 5844 5842 5841 5839 5838 5837 5836 5836 5835 5835 5835 5835 5835 5834 5835 5835 5835 5835 5834 5834 5834 5834 5834 5833 5833 5832 5832 5831 5831 5831
5854 5854 5854 5854 5854 5854 5854 5854 5854 5852 5851 5850 5849 5848 5846 5845 5844 5843 5842 5840 5839 5837 5836 5834 5833 5832 5832 5831 5832 5831 5831 5831 5831 5831 5831 5831 5831 5831 5830 5830 5830 5830 5830 5829 5829 5828 5828 5827 5827
5851 5852 5852 5852 5852 5852 5852 5851 5851 5850 5849 5848 5846 5845 5844 5842 5841 5839 5838 5837 5835 5834 5832 5831 5830 5829 5828 5828 5828 5827 5827 5827 5827 5827 5827 5827 5827 5827 5827 5826 5826 5826 5826 5825 5825 5825 5824 5824 5823
5849 5850 5849 5849 5849 5849 5849 5848 5849 5847 5846 5844 5843 5842 5841 5839 5837 5836 5834 5833 5831 5830 5829 5827 5826 5825 5824 5824 5824 5823 5823 5823 5823 5823 5823 5823 5823 5823 5822 5822 5822 5822 5821 5821 5821 5820 5820 5820 5820
5846 5847 5847 5847 5846 5846 5846 5845 5846 5844 5842 5841 5840 5838 5837 5835 5834 5832 5830 5829 5827 5826 5824 5823 5822 5821 5820 5820 5819 5819 5819 5819 5819 5819 5818 5818 5818 5818 5818 5818 5817 5817 5817 5817 5816 5816 5816 5816 5816
5843 5843 5844 5844 5843 5843 5843 5843 5842 5841 5839 5838 5836 5835 5833 5831 5830 5828 5826 5824 5822 5821 5820 5818 5817 5816 5816 5815 5815 5815 5814 5814 5814 5814 5814 5813 5813 5813 5813 5813 5813 5813 5812 5812 5812 5812 5812 5812 5811
5840 5840 5840 5840 5839 5839 5840 5839 5839 5837 5836 5834 5833 5831 5829 5828 5826 5823 5821 5819 5818 5816 5815 5814 5813 5812 5811 5810 5810 5810 5809 5809 5809 5809 5809 5808 5808 5808 5808 5808 5808 5808 5808 5807 5808 5807 5807 5807 5807
5837 5837 5836 5836 5836 5836 5836 5838 5836 5834 5832 5831 5829 5827 5825 5823 5821 5819 5817 5815 5813 5812 5810 5809 5807 5806 5805 5805 5804 5804 5804 5804 5804 5803 5803 5803 5803 5803 5803 5803 5803 5803 5803 5803 5803 5803 5802 5802 5802
5833 5833 5833 5833 5833 5832 5832 5835 5831 5830 5828 5826 5825 5823 5821 5818 5816 5814 5812 5811 5809 5807 5805 5804 5802 5801 5800 5799 5799 5798 5798 5798 5798 5798 5798 5798 5798 5797 5797 5798 5798 5798 5798 5798 5798 5798 5797 5797 5797